This demonstration page uses our WeatherBlox Daily Observations layout. Learn more.

Hourly Observations for January 20, 2015

Temp ( °F °C ) Dew Point ( °F °C ) Humidity (%) Winds ( mph kmh ) Pressure ( in mb ) Visibility ( mi km ) Precip ( " mm )
12:15 am 00:15 Mostly Cloudy 34 1.1 26 -3.5 72 72 NW 6 9 30.12 1020 10 16.0934 0 0
12:35 am 00:35 Mostly Cloudy 35 1.4 26 -3.1 72 72 WNW 3 6 30.12 1020 10 16.0934 0 0
12:55 am 00:55 Partly Cloudy 34 0.9 26 -3.1 75 75 W 6 9 30.12 1020 10 16.0934 0 0
1:15 am 01:15 Mostly Cloudy 34 1.3 27 -3 73 73 WNW 6 9 30.15 1021 10 16.0934 0 0
1:35 am 01:35 Cloudy 34 1.2 27 -2.7 76 76 WNW 6 9 30.15 1021 10 16.0934 0 0
1:55 am 01:55 Cloudy 34 1 27 -2.7 77 77 NW 6 9 30.15 1021 10 16.0934 0 0
2:15 am 02:15 Mostly Cloudy 35 1.5 27 -3 72 72 WNW 7 11 30.15 1021 10 16.0934 0 0
2:35 am 02:35 Partly Cloudy 34 1 27 -3 75 75 NW 5 7 30.15 1021 10 16.0934 0 0
2:55 am 02:55 Partly Cloudy 34 1.2 26 -3.1 73 73 NW 9 15 30.15 1021 10 16.0934 0 0
3:15 am 03:15 Mostly Cloudy 34 1.2 26 -3.3 72 72 NW 8 13 30.15 1021 10 16.0934 0 0
3:35 am 03:35 Cloudy 33 0.8 26 -3.2 75 75 NW 8 13 30.18 1022 10 16.0934 0 0
3:55 am 03:55 Mostly Cloudy 34 1.1 26 -3.4 72 72 NW 7 11 30.15 1021 10 16.0934 0 0
4:15 am 04:15 Partly Cloudy 33 0.6 26 -3.5 74 74 WNW 7 11 30.15 1021 10 16.0934 0 0
4:35 am 04:35 Clear 33 0.5 25 -3.7 74 74 WNW 8 13 30.15 1021 10 16.0934 0 0
4:55 am 04:55 Clear 32 -0.2 25 -4.1 75 75 NW 7 11 30.18 1022 10 16.0934 0 0
5:15 am 05:15 Clear 31 -0.5 25 -4.1 77 77 NW 8 13 30.18 1022 10 16.0934 0 0
5:35 am 05:35 Clear 31 -0.5 25 -4 77 77 WNW 8 13 30.18 1022 10 16.0934 0 0
5:55 am 05:55 Clear 31 -0.8 24 -4.4 77 77 WNW 7 11 30.18 1022 10 16.0934 0 0
6:15 am 06:15 Clear 31 -0.7 24 -4.5 76 76 WNW 6 9 30.18 1022 10 16.0934 0 0
6:35 am 06:35 Clear 32 -0.1 25 -4.1 75 75 WNW 7 11 30.18 1022 10 16.0934 0 0
6:55 am 06:55 Clear 32 0 24 -4.2 74 74 WNW 7 11 30.18 1022 10 16.0934 0 0
7:15 am 07:15 Clear 31 -0.4 24 -4.4 75 75 WNW 7 11 30.18 1022 10 16.0934 0 0
7:35 am 07:35 Clear 31 -0.5 24 -4.6 74 74 WNW 6 9 30.18 1022 10 16.0934 0 0
7:55 am 07:55 Clear 30 -1.3 23 -5 76 76 WNW 6 9 30.21 1023 10 16.0934 0 0
8:15 am 08:15 Sunny 28 -2.1 22 -5.4 78 78 W 5 7 30.21 1023 10 16.0934 0 0
8:35 am 08:35 Sunny 28 -2.5 22 -5.3 81 81 W 7 11 30.21 1023 10 16.0934 0 0
8:55 am 08:55 Sunny 30 -1.2 23 -5.1 75 75 WNW 5 7 30.21 1023 10 16.0934 0 0
9:15 am 09:15 Sunny 31 -0.5 24 -4.7 74 74 WNW 6 9 30.21 1023 10 16.0934 0 0
9:55 am 09:55 Sunny 36 2.3 26 -3.4 66 66 WNW 10 17 30.21 1023 10 16.0934 0 0
10:15 am 10:15 Sunny 38 3.2 26 -3.4 62 62 WNW 9 15 30.21 1023 10 16.0934 0 0
10:35 am 10:35 Sunny 40 4.5 26 -3.4 57 57 NW 9 15 30.18 1022 10 16.0934 0 0
10:55 am 10:55 Sunny 42 5.6 26 -3.4 53 53 WNW 9 15 30.18 1022 10 16.0934 0 0
11:15 am 11:15 Sunny 43 6.1 25 -4 49 49 NW 8 13 30.18 1022 10 16.0934 0 0
11:35 am 11:35 Sunny 44 6.8 25 -4 46 46 NW 10 17 30.18 1022 10 16.0934 0 0
11:55 am 11:55 Sunny 44 6.9 25 -3.9 46 46 NW 13 20 30.18 1022 10 16.0934 0 0
12:15 pm 12:15 Partly Cloudy 46 7.5 25 -4.1 44 44 NW 8 13 30.15 1021 10 16.0934 0 0
12:35 pm 12:35 Partly Cloudy 47 8.2 24 -4.5 41 41 NW 12 19 30.15 1021 10 16.0934 0 0
12:55 pm 12:55 Partly Cloudy 46 7.9 25 -4.1 43 43 NW 10 17 30.12 1020 10 16.0934 0 0
1:15 pm 13:15 Partly Cloudy 47 8.1 22 -5.3 39 39 NW 12 19 30.12 1020 10 16.0934 0 0
1:35 pm 13:35 Partly Cloudy 46 7.5 22 -5.3 40 40 NW 10 17 30.12 1020 10 16.0934 0 0
1:55 pm 13:55 Partly Cloudy 47 8.6 23 -5.2 38 38 NW 13 20 30.12 1020 10 16.0934 0 0
2:15 pm 14:15 Partly Cloudy 48 8.7 23 -5.2 37 37 WNW 13 20 30.09 1019 10 16.0934 0 0
2:35 pm 14:35 Mostly Cloudy 49 9.3 22 -5.7 34 34 NW 10 17 30.09 1019 10 16.0934 0 0
2:55 pm 14:55 Mostly Cloudy 48 9 23 -5.2 37 37 NW 10 17 30.09 1019 10 16.0934 0 0
3:15 pm 15:15 Partly Cloudy 48 9.1 22 -5.8 35 35 NNW 10 17 30.09 1019 10 16.0934 0 0
3:35 pm 15:35 Sunny 49 9.3 22 -5.8 34 34 WNW 12 19 30.09 1019 10 16.0934 0 0
3:55 pm 15:55 Sunny 48 9.1 21 -6.3 33 33 WNW 12 19 30.09 1019 10 16.0934 0 0
4:15 pm 16:15 Sunny 48 8.8 21 -6.3 34 34 NW 15 24 30.09 1019 10 16.0934 0 0
4:35 pm 16:35 Sunny 47 8.2 21 -6 36 36 WNW 10 17 30.09 1019 10 16.0934 0 0
4:55 pm 16:55 Sunny 46 7.6 22 -5.6 39 39 NW 10 17 30.09 1019 10 16.0934 0 0
5:15 pm 17:15 Sunny 43 6.3 22 -5.3 44 44 WNW 8 13 30.12 1020 10 16.0934 0 0
5:35 pm 17:35 Sunny 42 5.3 22 -5.6 46 46 W 7 11 30.15 1021 10 16.0934 0 0
5:55 pm 17:55 Clear 40 4.6 22 -5.4 49 49 WNW 8 13 30.15 1021 10 16.0934 0 0
6:15 pm 18:15 Clear 38 3.1 22 -5.6 53 53 W 10 17 30.18 1022 10 16.0934 0 0
6:35 pm 18:35 Clear 37 3 22 -5.6 54 54 W 12 19 30.18 1022 10 16.0934 0 0
6:55 pm 18:55 Clear 39 4 22 -5.8 49 49 WNW 12 19 30.15 1021 10 16.0934 0 0
7:15 pm 19:15 Clear 38 3.2 21 -6 51 51 WNW 13 20 30.18 1022 10 16.0934 0 0
7:35 pm 19:35 Clear 36 2.1 22 -5.8 56 56 WNW 10 17 30.18 1022 10 16.0934 0 0
7:55 pm 19:55 Clear 34 1.1 22 -5.5 62 62 WNW 8 13 30.18 1022 10 16.0934 0 0
8:15 pm 20:15 Clear 32 -0.1 22 -5.6 67 67 W 8 13 30.24 1024 10 16.0934 0 0
8:35 pm 20:35 Clear 33 0.3 22 -5.4 66 66 W 9 15 30.24 1024 10 16.0934 0 0
8:55 pm 20:55 Clear 33 0.5 22 -5.3 65 65 W 9 15 30.21 1023 10 16.0934 0 0
9:15 pm 21:15 Clear 32 0.1 22 -5.5 66 66 W 8 13 30.24 1024 10 16.0934 0 0
9:35 pm 21:35 Clear 31 -0.5 22 -5.6 69 69 WNW 6 9 30.24 1024 10 16.0934 0 0
9:55 pm 21:55 Clear 30 -0.9 22 -5.7 70 70 WNW 6 9 30.24 1024 10 16.0934 0 0
10:15 pm 22:15 Clear 31 -0.5 23 -5.2 71 71 WNW 7 11 30.24 1024 10 16.0934 0 0
10:35 pm 22:35 Clear 29 -1.9 22 -5.8 75 75 WNW 5 7 30.24 1024 10 16.0934 0 0
10:55 pm 22:55 Clear 29 -1.7 22 -5.5 76 76 WNW 6 9 30.24 1024 10 16.0934 0 0
11:15 pm 23:15 Clear 28 -2.2 22 -5.4 79 79 W 10 17 30.24 1024 10 16.0934 0 0
11:35 pm 23:35 Clear 29 -1.9 23 -5.1 79 79 W 8 13 30.24 1024 10 16.0934 0 0
11:55 pm 23:55 Clear 28 -2 23 -5.2 79 79 W 8 13 30.24 1024 10 16.0934 0 0

Powered by AerisWeather